Location: San Antonio
(29.4240°N, 98.4930°W)
Time: 06:24:30
(UTC-05:00)

Vanguard 3 - Visible Passes

Search period start: 19 July 2024 00:00
Search period end: 29 July 2024 00:00
Orbit: 508 x 3230 km, 33.4° (Epoch: 18 July)

Date Brightness Start Highest point End Pass type
(mag) Time Alt. Az. Time Alt. Az. Time Alt. Az.
19 Jul 9.3 01:46:54 73° SSW 01:48:31 78° SSE 02:08:02 10° ENE visible
19 Jul 10.0 03:51:01 18° W 04:05:29 79° N 04:25:27 10° E visible
19 Jul 10.2 06:04:07 10° WNW 06:23:50 86° NNE 06:41:12 10° ESE visible
20 Jul 9.7 00:31:59 48° ESE 00:31:59 48° ESE 00:45:25 10° ENE visible
20 Jul 9.6 02:36:05 42° W 02:43:22 86° NNW 03:03:31 10° ENE visible
20 Jul 10.1 04:43:17 10° W 05:01:20 79° N 05:20:37 10° E visible
20 Jul 10.4 23:16:59 21° E 23:16:59 21° E 23:22:08 10° ENE visible
21 Jul 9.2 01:21:04 76° SSW 01:22:14 80° SSE 01:41:07 10° ENE visible
21 Jul 9.9 03:25:10 17° W 03:38:51 78° N 03:59:01 10° E visible
21 Jul 10.1 05:37:58 10° WNW 05:57:02 88° NNE 06:15:21 10° ESE visible
21 Jul10.022:01:52E22:01:52E21:45:17SSEvisible
22 Jul 9.5 00:05:57 48° ESE 00:05:57 48° ESE 00:18:24 10° ENE visible
22 Jul 9.5 02:10:01 40° W 02:16:57 84° NNW 02:36:44 10° ENE visible
22 Jul 10.0 04:17:30 10° W 04:34:35 80° N 04:54:24 10° E visible
22 Jul 9.6 22:36:15 10° SSW 22:50:35 20° E 22:55:16 10° ENE visible
23 Jul 9.0 00:54:38 75° SW 00:56:03 82° SSE 01:14:05 10° ENE visible
23 Jul 9.8 02:58:40 13° W 03:12:16 78° N 03:32:25 10° E visible
23 Jul 10.1 05:11:55 10° WNW 05:30:10 89° NNE 05:49:16 10° ESE visible
23 Jul 9.5 21:22:01 10° SSE 21:25:47 14° SE 21:26:31 14° ESE visible
23 Jul 9.1 23:27:49 10° SW 23:38:39 53° ESE 23:51:22 10° ENE visible
24 Jul 9.4 01:42:34 29° W 01:50:39 82° N 02:09:48 10° ENE visible
24 Jul 9.9 03:51:51 10° W 04:07:49 80° N 04:27:57 10° E visible
24 Jul 10.1 06:06:26 10° WNW 06:25:17 74° SSW 06:43:19 10° SE visible
24 Jul 8.9 22:11:16 10° SSW 22:17:51 33° SE 22:28:27 10° E visible
25 Jul 8.9 00:20:25 10° WSW 00:30:01 85° SSE 00:47:00 10° ENE visible
25 Jul 9.7 02:32:25 10° W 02:45:46 77° N 03:05:38 10° E visible
25 Jul 10.0 04:46:01 10° WNW 05:03:16 89° SSW 05:22:58 10° ESE visible
25 Jul 9.4 20:57:01 10° SSE 21:00:12 13° SE 21:04:05 10° ESE visible
25 Jul 8.5 23:02:53 10° SW 23:10:33 61° SSE 23:24:20 10° ENE visible
26 Jul 9.2 01:13:37 10° W 01:24:28 80° N 01:42:44 10° ENE visible
26 Jul 9.8 03:26:18 10° WNW 03:41:08 81° N 04:01:18 10° E visible
26 Jul 10.0 05:40:18 10° WNW 05:58:17 72° SSW 06:17:03 10° SE visible
26 Jul 8.7 21:46:19 10° SSW 21:52:12 33° SE 22:01:44 10° E visible
26 Jul 8.7 23:55:27 10° WSW 00:04:07 87° SSE 00:19:52 10° ENE visible
27 Jul 9.5 02:07:11 10° W 02:19:24 76° N 02:38:39 10° E visible
27 Jul 9.9 04:20:14 10° WNW 04:36:22 87° SSW 04:56:24 10° ESE visible
27 Jul 8.3 22:37:59 10° SW 22:44:51 62° SSE 22:57:23 10° ENE visible
28 Jul 9.1 00:48:36 10° W 00:58:24 78° N 01:15:36 10° E visible
28 Jul 9.6 03:00:51 10° WNW 03:14:30 82° NNE 03:34:28 10° E visible
28 Jul 10.0 05:14:18 10° WNW 05:31:17 69° SSW 05:50:33 10° SE visible
28 Jul 8.5 21:21:23 10° SSW 21:26:39 33° SE 21:35:08 10° E visible
28 Jul 8.5 23:30:33 10° WSW 23:38:21 90° NNW 23:52:46 10° ENE visible
